Location: Newark
(8.3333°N, 39.1667°E)
Time: 18:35:49
(UTC+00:00)

Falcon 9 debris - Visible Passes

Search period start: 25 August 2019 00:00
Search period end: 04 September 2019 00:00
Orbit: 432 x 438 km, 53.0° (Epoch: 24 August)

Date Brightness Start Highest point End Pass type
(mag) Time Alt. Az. Time Alt. Az. Time Alt. Az.
25 Aug 3.1 16:30:38 10° NNW 16:34:01 62° NE 16:35:25 31° SE visible
27 Aug 5.9 16:43:55 10° W 16:46:10 16° WSW 16:48:25 10° SSW visible
28 Aug 4.9 16:00:48 10° WNW 16:03:52 31° WSW 16:06:57 10° S visible
02 Sep 3.6 02:30:33 10° SSW 02:33:58 62° SE 02:37:23 10° NE visible
03 Sep 4.9 01:50:19 22° SSE 01:51:39 30° ESE 01:54:43 10° ENE visible
